This demonstration page uses our WeatherBlox Daily Observations layout. Learn more.

41.55636, -103.73856

Hourly Observations for December 19, 2016

Temp ( °F °C ) Dew Point ( °F °C ) Humidity (%) Winds ( mph kmh ) Pressure ( in mb ) Visibility ( mi km ) Precip ( " mm )
12:53 am 00:53 Clear 3 -16.1 -6 -21.1 66 66 Calm 30.51 1033 10 16.0934 0 0
1:53 am 01:53 Clear -1 -18.3 -9 -22.8 68 68 ENE 3 6 30.5 1033 10 16.0934 0 0
2:53 am 02:53 Clear 0 -17.8 -8 -22.2 69 69 ENE 6 9 30.48 1032 10 16.0934 0 0
3:53 am 03:53 Clear 0 -17.8 -8 -22.2 69 69 NNE 8 13 30.48 1032 10 16.0934 0 0
4:53 am 04:53 Clear 1 -17.2 -7 -21.7 68 68 NNE 8 13 30.52 1034 10 16.0934 0 0
5:53 am 05:53 Clear 1 -17.2 -7 -21.7 68 68 NNE 5 7 30.51 1033 10 16.0934 0 0
6:53 am 06:53 Clear 0 -17.8 -7 -21.7 72 72 ENE 5 7 30.53 1034 10 16.0934 0 0
7:53 am 07:53 Sunny 6 -14.4 -3 -19.4 66 66 ENE 3 6 30.51 1033 10 16.0934 0 0
8:53 am 08:53 Sunny 11 -11.7 2 -16.7 67 67 Calm 30.48 1032 10 16.0934 0 0
9:53 am 09:53 Sunny 19 -7.2 5 -15 54 54 Calm 30.45 1031 10 16.0934 0 0
10:53 am 10:53 Sunny 23 -5 8 -13.3 53 53 Calm 30.37 1028 10 16.0934 0 0
11:53 am 11:53 Sunny 29 -1.7 16 -8.9 58 58 NNE 6 9 30.29 1026 10 16.0934 0 0
12:53 pm 12:53 Sunny 35 1.7 17 -8.3 48 48 N 5 7 30.24 1024 10 16.0934 0 0
1:53 pm 13:53 Sunny 39 3.9 20 -6.7 46 46 Calm 30.19 1023 10 16.0934 0 0
2:53 pm 14:53 Sunny 46 7.8 14 -10 27 27 WSW 12 19 30.14 1021 10 16.0934 0 0
3:53 pm 15:53 Sunny 44 6.7 15 -9.4 31 31 SW 12 19 30.14 1021 10 16.0934 0 0
4:53 pm 16:53 Clear 39 3.9 16 -8.9 39 39 WSW 9 15 30.14 1021 10 16.0934 0 0
5:53 pm 17:53 Clear 38 3.3 15 -9.4 39 39 W 8 13 30.16 1021 10 16.0934 0 0
6:53 pm 18:53 Mostly Cloudy 44 6.7 15 -9.4 31 31 W 21 33 30.14 1021 10 16.0934 0 0
7:53 pm 19:53 Clear 44 6.7 15 -9.4 31 31 WNW 22 35 30.13 1020 10 16.0934 0 0
8:53 pm 20:53 Clear 43 6.1 16 -8.9 34 34 WNW 20 31 30.11 1020 10 16.0934 0 0
9:53 pm 21:53 Clear 41 5 17 -8.3 38 38 W 17 28 30.11 1020 10 16.0934 0 0
10:53 pm 22:53 Clear 40 4.4 17 -8.3 40 40 WNW 13 20 30.15 1021 10 16.0934 0 0
11:53 pm 23:53 Clear 42 5.6 17 -8.3 36 36 NW 18 30 30.15 1021 10 16.0934 0 0

Powered by AerisWeather